Time,TemperatureF,DewpointF,PressureIn,WindDirection,WindDirectionDegrees,WindSpeedMPH,WindSpeedGustMPH,Humidity,HourlyPrecipIn,Conditions,Clouds,dailyrainin,SoftwareType,DateUTC
2013-02-20 00:01:00,-3.0,-15.0,30.31,North,0,4.0,4.0,54,0.00,,,0.00,,2013-02-20 06:01:00,
2013-02-20 00:11:00,-3.0,-15.0,30.31,North,357,6.0,8.0,54,0.00,,,0.00,,2013-02-20 06:11:00,
2013-02-20 00:21:00,-3.0,-15.0,30.31,North,357,6.0,8.0,54,0.00,,,0.00,,2013-02-20 06:21:00,
2013-02-20 00:31:00,-3.0,-15.0,30.31,North,353,6.0,11.0,54,0.00,,,0.00,,2013-02-20 06:31:00,
2013-02-20 00:52:00,-3.0,-15.0,30.31,NW,320,5.0,5.0,54,0.00,,,0.00,,2013-02-20 06:52:00,
2013-02-20 01:01:00,-3.0,-15.0,30.34,North,0,6.0,9.0,54,0.00,,,0.00,,2013-02-20 07:01:00,
2013-02-20 01:21:00,-3.0,-15.0,30.34,North,350,5.0,6.0,54,0.00,,,0.00,,2013-02-20 07:21:00,
2013-02-20 01:31:00,-3.0,-15.0,30.34,NNW,329,3.0,13.0,54,0.00,,,0.00,,2013-02-20 07:31:00,
2013-02-20 01:52:00,-3.0,-15.0,30.34,North,0,6.0,13.0,54,0.00,,,0.00,,2013-02-20 07:52:00,
2013-02-20 02:05:00,-3.0,-15.0,30.34,NW,316,5.0,12.0,54,0.00,,,0.00,,2013-02-20 08:05:00,
2013-02-20 02:21:00,-4.0,-16.0,30.37,NNW,348,4.0,6.0,54,0.00,,,0.00,,2013-02-20 08:21:00,
2013-02-20 02:31:00,-4.0,-16.0,30.37,NNW,334,3.0,8.0,54,0.00,,,0.00,,2013-02-20 08:31:00,
2013-02-20 02:52:00,-4.0,-16.0,30.37,NW,323,6.0,6.0,54,0.00,,,0.00,,2013-02-20 08:52:00,
2013-02-20 03:01:00,-3.0,-15.0,30.37,NW,324,6.0,6.0,54,0.00,,,0.00,,2013-02-20 09:01:00,
2013-02-20 03:21:00,-4.0,-16.0,30.37,North,0,5.0,5.0,54,0.00,,,0.00,,2013-02-20 09:21:00,
2013-02-20 03:31:00,-3.0,-15.0,30.37,North,353,9.0,10.0,54,0.00,,,0.00,,2013-02-20 09:31:00,
2013-02-20 03:52:00,-3.0,-15.0,30.37,NNW,348,0.0,8.0,54,0.00,,,0.00,,2013-02-20 09:52:00,
2013-02-20 04:01:00,-4.0,-16.0,30.37,North,357,6.0,6.0,54,0.00,,,0.00,,2013-02-20 10:01:00,
2013-02-20 04:22:00,-4.0,-16.0,30.37,NW,322,0.0,5.0,54,0.00,,,0.00,,2013-02-20 10:22:00,
2013-02-20 04:31:00,-4.0,-16.0,30.37,North,353,4.0,4.0,54,0.00,,,0.00,,2013-02-20 10:31:00,
2013-02-20 04:52:00,-4.0,-16.0,30.37,North,0,5.0,6.0,54,0.00,,,0.00,,2013-02-20 10:52:00,
2013-02-20 05:02:00,-4.0,-16.0,30.37,North,0,9.0,9.0,54,0.00,,,0.00,,2013-02-20 11:02:00,
2013-02-20 05:11:00,-4.0,-16.0,30.37,NNW,333,4.0,10.0,54,0.00,,,0.00,,2013-02-20 11:11:00,
2013-02-20 05:21:00,-4.0,-16.0,30.37,NNW,333,4.0,10.0,54,0.00,,,0.00,,2013-02-20 11:21:00,
2013-02-20 05:32:00,-4.0,-16.0,30.37,NW,319,0.0,0.0,54,0.00,,,0.00,,2013-02-20 11:32:00,
2013-02-20 05:52:00,-5.0,-17.0,30.37,NW,318,0.0,0.0,54,0.00,,,0.00,,2013-02-20 11:52:00,
2013-02-20 06:01:00,-5.0,-17.0,30.37,North,353,0.0,0.0,54,0.00,,,0.00,,2013-02-20 12:01:00,
2013-02-20 06:21:00,-4.0,-16.0,30.37,NNW,341,3.0,8.0,54,0.00,,,0.00,,2013-02-20 12:21:00,
2013-02-20 06:32:00,-4.0,-16.0,30.37,NNW,345,0.0,0.0,54,0.00,,,0.00,,2013-02-20 12:32:00,
2013-02-20 06:42:00,-4.0,-16.0,30.37,NNW,345,0.0,0.0,54,0.00,,,0.00,,2013-02-20 12:42:00,
2013-02-20 06:53:00,-4.0,-16.0,30.37,North,1,6.0,8.0,54,0.00,,,0.00,,2013-02-20 12:53:00,
2013-02-20 07:01:00,-4.0,-16.0,30.37,North,2,6.0,6.0,54,0.00,,,0.00,,2013-02-20 13:01:00,
2013-02-20 07:11:00,-4.0,-16.0,30.37,North,2,6.0,6.0,54,0.00,,,0.00,,2013-02-20 13:11:00,
2013-02-20 07:22:00,-4.0,-16.0,30.37,NNE,20,5.0,6.0,54,0.00,,,0.00,,2013-02-20 13:22:00,
2013-02-20 07:31:00,-4.0,-16.0,30.37,North,357,8.0,8.0,54,0.00,,,0.00,,2013-02-20 13:31:00,
2013-02-20 07:42:00,-4.0,-16.0,30.37,North,357,8.0,8.0,54,0.00,,,0.00,,2013-02-20 13:42:00,
2013-02-20 07:52:00,-4.0,-16.0,30.37,NE,52,8.0,8.0,54,0.00,,,0.00,,2013-02-20 13:52:00,
2013-02-20 08:01:00,-4.0,-16.0,30.37,NNE,17,0.0,4.0,54,0.00,,,0.00,,2013-02-20 14:01:00,
2013-02-20 08:21:00,-3.0,-15.0,30.37,North,2,5.0,9.0,54,0.00,,,0.00,,2013-02-20 14:21:00,
2013-02-20 08:32:00,-2.0,-15.0,30.37,NNE,24,5.0,8.0,54,0.00,,,0.00,,2013-02-20 14:32:00,
2013-02-20 08:42:00,-2.0,-15.0,30.37,NNE,24,5.0,8.0,54,0.00,,,0.00,,2013-02-20 14:42:00,
2013-02-20 08:52:00,-1.0,-14.0,30.37,North,4,6.0,6.0,54,0.00,,,0.00,,2013-02-20 14:52:00,
2013-02-20 09:01:00,0.0,-13.0,30.37,North,4,8.0,10.0,54,0.00,,,0.00,,2013-02-20 15:01:00,
2013-02-20 09:11:00,2.0,-11.0,30.37,NE,35,6.0,12.0,54,0.00,,,0.00,,2013-02-20 15:11:00,
2013-02-20 09:22:00,2.0,-11.0,30.37,NE,35,6.0,12.0,54,0.00,,,0.00,,2013-02-20 15:22:00,
2013-02-20 09:32:00,2.0,-11.0,30.37,NE,35,5.0,6.0,54,0.00,,,0.00,,2013-02-20 15:32:00,
2013-02-20 09:42:00,3.0,-10.0,30.40,NE,35,8.0,12.0,54,0.00,,,0.00,,2013-02-20 15:42:00,
2013-02-20 09:52:00,3.0,-10.0,30.40,NE,35,8.0,12.0,54,0.00,,,0.00,,2013-02-20 15:52:00,
2013-02-20 10:01:00,5.0,-8.0,30.40,North,11,5.0,6.0,54,0.00,,,0.00,,2013-02-20 16:01:00,
2013-02-20 10:11:00,5.0,-8.0,30.40,North,11,5.0,6.0,54,0.00,,,0.00,,2013-02-20 16:11:00,
2013-02-20 10:21:00,6.0,-7.0,30.40,NNE,25,0.0,0.0,54,0.00,,,0.00,,2013-02-20 16:21:00,
2013-02-20 10:32:00,7.0,-6.0,30.40,NNE,32,4.0,8.0,54,0.00,,,0.00,,2013-02-20 16:32:00,
2013-02-20 10:41:00,7.0,-6.0,30.40,NNE,32,4.0,8.0,54,0.00,,,0.00,,2013-02-20 16:41:00,
2013-02-20 10:52:00,8.0,-5.0,30.40,ENE,72,6.0,8.0,54,0.00,,,0.00,,2013-02-20 16:52:00,
2013-02-20 11:01:00,9.0,-4.0,30.40,North,4,3.0,4.0,54,0.00,,,0.00,,2013-02-20 17:01:00,
2013-02-20 11:11:00,8.0,-5.0,30.40,NNE,28,0.0,6.0,54,0.00,,,0.00,,2013-02-20 17:11:00,
2013-02-20 11:21:00,8.0,-5.0,30.40,NNE,28,0.0,6.0,54,0.00,,,0.00,,2013-02-20 17:21:00,
2013-02-20 11:32:00,9.0,-4.0,30.40,North,6,4.0,8.0,54,0.00,,,0.00,,2013-02-20 17:32:00,
2013-02-20 11:42:00,9.0,-4.0,30.40,North,6,4.0,8.0,54,0.00,,,0.00,,2013-02-20 17:42:00,
2013-02-20 11:52:00,11.0,-2.0,30.37,NE,43,9.0,9.0,54,0.00,,,0.00,,2013-02-20 17:52:00,
2013-02-20 12:02:00,11.0,-2.0,30.37,NNW,333,6.0,8.0,54,0.00,,,0.00,,2013-02-20 18:02:00,
2013-02-20 12:11:00,11.0,-2.0,30.37,NNW,333,6.0,8.0,54,0.00,,,0.00,,2013-02-20 18:11:00,
2013-02-20 12:21:00,12.0,-1.0,30.37,NE,48,8.0,8.0,54,0.00,,,0.00,,2013-02-20 18:21:00,
2013-02-20 12:32:00,12.0,-1.0,30.37,NNW,346,6.0,6.0,54,0.00,,,0.00,,2013-02-20 18:32:00,
2013-02-20 12:42:00,12.0,-1.0,30.37,NNW,346,6.0,6.0,54,0.00,,,0.00,,2013-02-20 18:42:00,
2013-02-20 12:52:00,14.0,-3.0,30.37,West,280,6.0,6.0,45,0.00,,,0.00,,2013-02-20 18:52:00,
2013-02-20 13:01:00,17.0,-1.0,30.40,West,274,6.0,8.0,45,0.00,,,0.00,,2013-02-20 19:01:00,
2013-02-20 13:11:00,17.0,-1.0,30.40,West,274,6.0,8.0,45,0.00,,,0.00,,2013-02-20 19:11:00,
2013-02-20 13:21:00,20.0,1.0,30.40,SW,217,5.0,8.0,43,0.00,,,0.00,,2013-02-20 19:21:00,
2013-02-20 13:31:00,19.0,0.0,30.40,West,276,0.0,0.0,43,0.00,,,0.00,,2013-02-20 19:31:00,
2013-02-20 13:41:00,19.0,0.0,30.40,West,276,0.0,0.0,43,0.00,,,0.00,,2013-02-20 19:41:00,
2013-02-20 13:52:00,20.0,1.0,30.40,SW,222,9.0,9.0,43,0.00,,,0.00,,2013-02-20 19:52:00,
2013-02-20 14:01:00,21.0,1.0,30.40,NNW,342,0.0,5.0,41,0.00,,,0.00,,2013-02-20 20:01:00,
2013-02-20 14:11:00,21.0,1.0,30.40,WNW,298,8.0,13.0,40,0.00,,,0.00,,2013-02-20 20:11:00,
2013-02-20 14:21:00,21.0,1.0,30.40,WNW,298,8.0,13.0,40,0.00,,,0.00,,2013-02-20 20:21:00,
2013-02-20 14:31:00,22.0,1.0,30.37,WNW,299,4.0,9.0,40,0.00,,,0.00,,2013-02-20 20:31:00,
2013-02-20 14:41:00,20.0,1.0,30.37,North,353,9.0,9.0,42,0.00,,,0.00,,2013-02-20 20:41:00,
2013-02-20 14:51:00,20.0,1.0,30.37,North,353,9.0,9.0,42,0.00,,,0.00,,2013-02-20 20:51:00,
2013-02-20 15:01:00,20.0,1.0,30.34,North,357,6.0,8.0,42,0.00,,,0.00,,2013-02-20 21:01:00,
2013-02-20 15:11:00,20.0,1.0,30.34,NNW,327,5.0,6.0,43,0.00,,,0.00,,2013-02-20 21:11:00,
2013-02-20 15:21:00,20.0,1.0,30.34,NNW,327,5.0,6.0,43,0.00,,,0.00,,2013-02-20 21:21:00,
2013-02-20 15:31:00,20.0,1.0,30.34,NNE,27,8.0,8.0,43,0.00,,,0.00,,2013-02-20 21:31:00,
2013-02-20 15:41:00,20.0,1.0,30.34,NNE,27,8.0,8.0,43,0.00,,,0.00,,2013-02-20 21:41:00,
2013-02-20 15:52:00,20.0,1.0,30.34,North,357,6.0,9.0,43,0.00,,,0.00,,2013-02-20 21:52:00,
2013-02-20 16:01:00,20.0,2.0,30.34,NNW,335,5.0,5.0,44,0.00,,,0.00,,2013-02-20 22:01:00,
2013-02-20 16:11:00,20.0,1.0,30.34,NE,49,10.0,15.0,43,0.00,,,0.00,,2013-02-20 22:11:00,
2013-02-20 16:21:00,20.0,1.0,30.34,NE,49,10.0,15.0,43,0.00,,,0.00,,2013-02-20 22:21:00,
2013-02-20 16:31:00,20.0,2.0,30.34,NE,42,5.0,6.0,44,0.00,,,0.00,,2013-02-20 22:31:00,
2013-02-20 16:42:00,20.0,2.0,30.34,NE,42,5.0,6.0,44,0.00,,,0.00,,2013-02-20 22:42:00,
2013-02-20 16:52:00,20.0,2.0,30.31,NNE,33,10.0,10.0,45,0.00,,,0.00,,2013-02-20 22:52:00,
2013-02-20 17:01:00,20.0,2.0,30.31,North,357,12.0,12.0,45,0.00,,,0.00,,2013-02-20 23:01:00,
2013-02-20 17:12:00,19.0,2.0,30.34,NNE,31,6.0,9.0,47,0.00,,,0.00,,2013-02-20 23:12:00,
2013-02-20 17:22:00,19.0,2.0,30.34,NNE,31,6.0,9.0,47,0.00,,,0.00,,2013-02-20 23:22:00,
2013-02-20 17:31:00,19.0,3.0,30.34,NE,51,5.0,9.0,48,0.00,,,0.00,,2013-02-20 23:31:00,
2013-02-20 17:42:00,19.0,3.0,30.34,NE,51,5.0,9.0,48,0.00,,,0.00,,2013-02-20 23:42:00,
2013-02-20 17:52:00,18.0,2.0,30.34,ENE,61,4.0,6.0,49,0.00,,,0.00,,2013-02-20 23:52:00,
2013-02-20 18:02:00,17.0,1.0,30.34,NE,36,6.0,8.0,49,0.00,,,0.00,,2013-02-21 00:02:00,
2013-02-20 18:21:00,16.0,1.0,30.34,NNE,29,0.0,6.0,50,0.00,,,0.00,,2013-02-21 00:21:00,
2013-02-20 18:32:00,15.0,0.0,30.34,NNE,21,0.0,6.0,51,0.00,,,0.00,,2013-02-21 00:32:00,
2013-02-20 18:52:00,14.0,0.0,30.34,NE,50,3.0,4.0,52,0.00,,,0.00,,2013-02-21 00:52:00,
2013-02-20 19:01:00,14.0,0.0,30.34,ENE,69,3.0,4.0,53,0.00,,,0.00,,2013-02-21 01:01:00,
2013-02-20 19:21:00,13.0,-1.0,30.34,NE,52,0.0,0.0,53,0.00,,,0.00,,2013-02-21 01:21:00,
2013-02-20 19:32:00,13.0,-1.0,30.34,ENE,65,0.0,0.0,53,0.00,,,0.00,,2013-02-21 01:32:00,
2013-02-20 19:52:00,13.0,-1.0,30.34,NE,54,8.0,8.0,53,0.00,,,0.00,,2013-02-21 01:52:00,
2013-02-20 20:01:00,13.0,-1.0,30.31,NE,41,8.0,8.0,53,0.00,,,0.00,,2013-02-21 02:01:00,
2013-02-20 20:21:00,12.0,-2.0,30.31,NNE,28,3.0,3.0,53,0.00,,,0.00,,2013-02-21 02:21:00,
2013-02-20 20:32:00,12.0,-2.0,30.34,NE,45,0.0,6.0,53,0.00,,,0.00,,2013-02-21 02:32:00,
2013-02-20 20:42:00,12.0,-2.0,30.34,NE,45,0.0,6.0,53,0.00,,,0.00,,2013-02-21 02:42:00,
2013-02-20 20:52:00,12.0,-2.0,30.34,NE,45,0.0,6.0,53,0.00,,,0.00,,2013-02-21 02:52:00,
2013-02-20 21:01:00,11.0,-3.0,30.34,NE,50,0.0,0.0,53,0.00,,,0.00,,2013-02-21 03:01:00,
2013-02-20 21:21:00,10.0,-4.0,30.34,NE,48,0.0,0.0,53,0.00,,,0.00,,2013-02-21 03:21:00,
2013-02-20 21:32:00,10.0,-4.0,30.34,NE,48,0.0,0.0,53,0.00,,,0.00,,2013-02-21 03:32:00,
2013-02-20 21:52:00,9.0,-5.0,30.34,NE,48,0.0,0.0,53,0.00,,,0.00,,2013-02-21 03:52:00,
2013-02-20 22:01:00,9.0,-5.0,30.34,NE,48,0.0,0.0,53,0.00,,,0.00,,2013-02-21 04:01:00,
2013-02-20 22:21:00,9.0,-5.0,30.34,NE,48,0.0,0.0,53,0.00,,,0.00,,2013-02-21 04:21:00,
2013-02-20 22:32:00,8.0,-6.0,30.34,NE,48,0.0,0.0,53,0.00,,,0.00,,2013-02-21 04:32:00,
2013-02-20 22:52:00,8.0,-6.0,30.34,NE,48,0.0,0.0,53,0.00,,,0.00,,2013-02-21 04:52:00,
2013-02-20 23:02:00,8.0,-6.0,30.34,NE,48,0.0,0.0,53,0.00,,,0.00,,2013-02-21 05:02:00,
2013-02-20 23:22:00,8.0,-6.0,30.34,NE,48,0.0,0.0,53,0.00,,,0.00,,2013-02-21 05:22:00,
2013-02-20 23:33:00,8.0,-6.0,30.34,NE,48,0.0,0.0,53,0.00,,,0.00,,2013-02-21 05:33:00,
2013-02-20 23:59:00,8.0,-6.0,30.34,NE,48,0.0,0.0,53,0.00,,,0.00,,2013-02-21 05:59:00,